Location: Dalton Gardens
(47.7327°N, 116.7697°W)
Time: 02:56:56
(UTC+00:00)

BlueWalker 3 - Pass Details

Date: 06 December 2022
Orbit: 499 x 517 km, 53.2° (Epoch: 26 January)

Event Time Altitude Azimuth Distance (km) Brightness Sun altitude
Rises 00:27:28 0° 283° (WNW) 2,636 6.4 -5.4°
Reaches altitude 10° 00:29:48 10° 292° (WNW) 1,745 5.3 -5.8°
Maximum altitude 00:33:28 36° 1° (N) 832 2.8 -6.3°
Drops below altitude 10° 00:37:07 10° 69° (ENE) 1,732 4.0 -6.9°
Enters shadow 00:37:24 - 70° (ENE) 1,837 4.1 -6.9°
